[[{"header":{"parameterUnit":"m.s-1","parameterCategory":2,"la1":30.2991,"la2":30.254,"lo1":-89.0895,"lo2":-89.0444,"dy":0.0017,"dx":0.0017,"nx":28,"ny":28,"refTime":"2025-01-10T03:00:00:Z","depth":"0","parameterNumber":2,"parameterNumberName":"U-component_of_CURRENTS"},"data":[0,0,0,0,0,0,0,0,0,0,0,0,0,0,0,0,0,0,0,0,0,0,0,0,0,0,0,0,0,0,0,0,0,0,0,0,0,0,0,0,0,0,0,0,0,0,0,0,0,0,0,0,0,0,0,0,0,0,-0.2311,-0.2312,0,-0.2351,-0.2351,-0.2351,-0.2326,-0.2325,-0.2324,-0.2323,-0.2275,-0.2275,-0.2274,0,0,0,0,0,0,0,0,0,0,0,0,0,-0.221,-0.2211,-0.2311,-0.2312,-0.2313,-0.2351,-0.2351,-0.2351,-0.2326,-0.2325,-0.2324,-0.2322,-0.2275,-0.2275,-0.2274,0,0,0,0,0,0,0,0,0,0,0,0,0,-0.2249,-0.2212,-0.2311,-0.2307,-0.2307,-0.2351,-0.2351,-0.2351,-0.2326,-0.2325,-0.2323,-0.2322,-0.2275,-0.2275,-0.2274,-0.2298,0,0,-0.2272,-0.2272,0,0,0,0,0,0,0,0,-0.2247,-0.2252,-0.2307,-0.2307,-0.2307,-0.2334,-0.2298,-0.233,-0.2326,-0.2316,-0.2323,-0.2321,-0.229,-0.2288,-0.2295,-0.2295,-0.2293,-0.2272,-0.2272,-0.2271,-0.2271,0,0,0,0,0,0,0,-0.2244,-0.2251,-0.2324,-0.2308,-0.2308,-0.2302,-0.2305,-0.2304,-0.2306,-0.2316,-0.2315,-0.2325,-0.2289,-0.2296,-0.2294,-0.2292,-0.2272,-0.2271,-0.2271,-0.2271,-0.2299,-0.23,0,0,0,0,0,0,-0.2248,-0.2249,-0.2323,-0.2325,-0.2277,-0.2305,-0.2309,-0.2325,-0.2308,-0.2306,-0.2326,-0.2324,-0.2298,-0.2295,-0.2292,-0.2308,-0.2271,-0.2271,-0.227,-0.2298,-0.2299,-0.2301,0,0,0,0,0,0,-0.2245,-0.2254,-0.2321,-0.2289,-0.2298,-0.2308,-0.2326,-0.2326,-0.2328,-0.2317,-0.2312,-0.2327,-0.2297,-0.2293,-0.2294,-0.2306,-0.227,-0.227,-0.2297,-0.2298,-0.23,-0.2346,0,0,0,0,0,0,-0.2242,-0.2253,-0.226,-0.229,-0.23,-0.2346,-0.2328,-0.2328,-0.2338,-0.2335,-0.2316,-0.2311,-0.2295,-0.2295,-0.2293,-0.2304,-0.2269,-0.2295,-0.2297,-0.2299,-0.2344,-0.235,-0.2355,0,0,0,0,0,-0.2239,-0.2256,-0.226,-0.2269,-0.2311,-0.2347,-0.2351,-0.2352,-0.2339,-0.2346,-0.2336,-0.2311,-0.2307,-0.2296,-0.2293,-0.2304,-0.2294,-0.2297,-0.2299,-0.2341,-0.2348,-0.2355,0,0,0,0,0,0,-0.2213,-0.2256,-0.2261,-0.2289,-0.2316,-0.2344,-0.235,-0.2355,-0.2355,-0.2346,-0.2327,-0.2322,-0.2329,-0.2315,-0.2303,-0.232,-0.2296,-0.2298,-0.2329,-0.2335,-0.2341,-0.2334,-0.2269,0,0,0,0,0,-0.2214,-0.2235,-0.2276,-0.2295,-0.231,-0.2331,-0.2343,-0.2349,-0.2359,-0.2357,-0.2348,-0.2339,-0.2341,-0.2335,-0.2334,-0.2344,-0.2324,-0.235,-0.2355,-0.236,-0.2354,-0.2345,-0.2349,-0.2309,-0.2309,-0.2309,0,0,-0.2206,-0.2234,-0.2244,-0.229,-0.2307,-0.2337,-0.2333,-0.2358,-0.2376,-0.2352,-0.2362,-0.2359,-0.235,-0.2362,-0.2363,-0.2348,-0.2364,-0.2363,-0.2367,-0.2358,-0.2348,-0.2352,-0.2355,-0.2311,-0.231,-0.231,0,0,-0.2208,-0.2231,-0.2251,-0.228,-0.2317,-0.2337,-0.2346,-0.2378,-0.2383,-0.2404,-0.2392,-0.2398,-0.2397,-0.2398,-0.2397,-0.2434,-0.2396,-0.2432,-0.2449,-0.2442,-0.2444,-0.2446,-0.2432,-0.2433,-0.2431,-0.2431,-0.2431,0,-0.2196,-0.223,-0.226,-0.2292,-0.2313,-0.2339,-0.2364,-0.2386,-0.2411,-0.2416,-0.2408,-0.242,-0.2416,-0.243,-0.2446,-0.2445,-0.2429,-0.2423,-0.2448,-0.2449,-0.2451,-0.2436,-0.2435,-0.2434,-0.2433,-0.2433,-0.2433,0,-0.2218,-0.2245,-0.226,-0.2307,-0.2335,-0.2362,-0.2403,-0.2422,-0.243,-0.2446,-0.2461,-0.2465,-0.2465,-0.2475,-0.2472,-0.2485,-0.2466,-0.2458,-0.2427,-0.2457,-0.244,-0.2439,-0.2437,-0.2436,-0.2436,-0.2435,0,0,-0.2184,-0.226,-0.2262,-0.2284,-0.2345,-0.2368,-0.2407,-0.2444,-0.2457,-0.248,-0.249,-0.2513,-0.2508,-0.2507,-0.2506,-0.2506,-0.2513,-0.2486,-0.2485,-0.2466,-0.2487,-0.2406,-0.2397,-0.2504,-0.2504,-0.2504,-0.2473,0,-0.2186,-0.2238,-0.2279,-0.2319,-0.2347,-0.2389,-0.2421,-0.2457,-0.2479,-0.2498,-0.251,-0.252,-0.2523,-0.2521,-0.2526,-0.2519,-0.2511,-0.2522,-0.2465,-0.2463,-0.2383,-0.2394,-0.2302,-0.226,-0.2471,-0.2471,-0.2471,0,-0.2187,-0.2223,-0.2263,-0.2322,-0.2338,-0.2364,-0.2408,-0.2443,-0.2484,-0.2498,-0.2514,-0.2523,-0.2539,-0.253,-0.2526,-0.253,-0.2509,-0.2499,-0.2498,-0.2401,-0.238,-0.2263,-0.225,-0.2233,-0.2469,-0.2469,-0.2469,0,-0.2137,-0.2207,-0.2233,-0.2257,-0.2332,-0.2347,-0.238,-0.243,-0.2455,-0.2491,-0.2506,-0.2524,-0.2529,-0.2518,-0.2509,-0.2514,-0.2489,-0.2492,-0.2398,-0.2392,-0.229,-0.2274,-0.2244,-0.2472,-0.2472,-0.2472,-0.2472,0,-0.212,-0.2138,-0.2209,-0.2223,-0.2247,-0.2311,-0.2334,-0.2373,-0.2423,-0.2448,-0.2493,-0.2508,-0.2525,-0.2519,-0.2505,-0.2443,-0.2483,-0.2393,-0.2375,-0.2304,-0.2291,-0.2251,-0.2272,-0.2471,-0.2471,-0.2471,-0.2471,0,-0.2056,-0.2109,-0.2139,-0.2207,-0.2225,-0.2236,-0.2304,-0.232,-0.2382,-0.2415,-0.2426,-0.249,-0.2481,-0.248,-0.246,-0.2423,-0.2334,-0.2345,-0.2257,-0.2228,-0.211,-0.2136,-0.2072,-0.2012,-0.2232,-0.223,-0.2228,0,-0.2028,-0.2038,-0.2103,-0.2111,-0.2137,-0.2171,-0.2192,-0.2276,-0.2305,-0.2399,-0.2407,-0.2428,-0.2419,-0.2364,-0.2304,-0.2237,-0.2243,-0.2112,-0.2101,-0.2079,-0.2097,-0.212,-0.2076,-0.1995,-0.1992,-0.1989,-0.1986,0,-0.1958,-0.198,-0.2003,-0.2026,-0.2046,-0.2079,-0.2123,-0.2148,-0.2248,-0.2283,-0.2328,-0.233,-0.2292,-0.2189,-0.2103,-0.2055,-0.2054,-0.2046,-0.2048,-0.1922,-0.1919,-0.1859,-0.2049,-0.196,-0.1962,-0.1964,-0.1966,-0.1967,-0.1886,-0.1883,-0.1911,-0.1921,-0.1949,-0.1969,-0.1959,-0.2025,-0.206,-0.2095,-0.2184,-0.2158,-0.2099,-0.1962,-0.1908,-0.1787,-0.1849,-0.174,-0.178,-0.1809,-0.1729,-0.185,-0.1724,-0.1725,-0.1726,-0.1727,-0.1728,0,-0.1788,-0.1795,-0.1802,-0.1816,-0.18,-0.1854,-0.1892,-0.1866,-0.1866,-0.1923,-0.1933,-0.1909,-0.1794,-0.1754,-0.1647,-0.1562,-0.1529,-0.1528,-0.1555,-0.1525,-0.1644,-0.161,-0.1421,-0.1421,-0.1421,-0.1421,-0.1421,-0.1421,-0.1736,-0.1707,-0.1715,-0.1658,-0.1662,-0.1608,-0.1604,-0.1588,-0.1602,-0.1579,-0.1594,-0.1646,-0.165,-0.1706,-0.1576,-0.1483,-0.145,-0.1394,-0.1422,-0.1536,-0.156,-0.1583,-0.1556,-0.1358,-0.1358,-0.1243,-0.1243,-0.1242]},{"header":{"parameterUnit":"m.s-1","parameterCategory":2,"la1":30.2991,"la2":30.254,"lo1":-89.0895,"lo2":-89.0444,"dy":0.0017,"dx":0.0017,"nx":28,"ny":28,"refTime":"2025-01-10T03:00:00:Z","depth":"0","parameterNumber":3,"parameterNumberName":"V-component_of_CURRENTS"},"data":[0,0,0,0,0,0,0,0,0,0,0,0,0,0,0,0,0,0,0,0,0,0,0,0,0,0,0,0,0,0,0,0,0,0,0,0,0,0,0,0,0,0,0,0,0,0,0,0,0,0,0,0,0,0,0,0,0,0,-0.0278,-0.0277,0,-0.0215,-0.0214,-0.0213,-0.0162,-0.0162,-0.0162,-0.0161,-0.0057,-0.0054,-0.0052,0,0,0,0,0,0,0,0,0,0,0,0,0,-0.0302,-0.0302,-0.0278,-0.0277,-0.0277,-0.0215,-0.0214,-0.0213,-0.0162,-0.0162,-0.0162,-0.0161,-0.0057,-0.0054,-0.0051,0,0,0,0,0,0,0,0,0,0,0,0,0,-0.0269,-0.0302,-0.0278,-0.0245,-0.0242,-0.0215,-0.0214,-0.0213,-0.0163,-0.0162,-0.0162,-0.0161,-0.0058,-0.0055,-0.0051,-0.0038,0,0,-0.004,-0.0038,0,0,0,0,0,0,0,0,-0.0271,-0.0268,-0.0251,-0.0248,-0.0244,-0.0198,-0.0184,-0.0153,-0.0163,-0.0191,-0.0161,-0.0161,-0.0102,-0.0094,-0.0081,-0.0033,-0.0029,-0.0039,-0.0037,-0.0036,-0.0034,0,0,0,0,0,0,0,-0.0273,-0.027,-0.0251,-0.025,-0.0246,-0.0216,-0.0211,-0.0178,-0.0147,-0.0188,-0.0185,-0.0181,-0.0099,-0.0085,-0.0078,-0.0027,-0.0039,-0.0036,-0.0034,-0.0032,0.0047,0.0046,0,0,0,0,0,0,-0.0288,-0.0272,-0.0253,-0.0249,-0.0258,-0.0217,-0.0211,-0.0211,-0.0148,-0.0139,-0.0182,-0.0179,-0.0092,-0.0083,-0.0074,-0.0057,-0.0036,-0.0032,-0.003,0.0047,0.0047,0.0046,0,0,0,0,0,0,-0.0289,-0.0287,-0.0255,-0.026,-0.0255,-0.0217,-0.0218,-0.021,-0.0196,-0.0144,-0.0134,-0.0175,-0.0091,-0.008,-0.0046,-0.0053,-0.003,-0.0027,0.0047,0.0047,0.0046,-0.0022,0,0,0,0,0,0,-0.029,-0.0288,-0.0292,-0.0262,-0.0255,-0.0247,-0.0218,-0.021,-0.0196,-0.0192,-0.0136,-0.0125,-0.009,-0.0052,-0.0042,-0.0047,-0.0024,0.0047,0.0047,0.0047,-0.002,-0.0024,-0.0029,0,0,0,0,0,-0.0291,-0.0304,-0.0293,-0.029,-0.0263,-0.0248,-0.0242,-0.0212,-0.0196,-0.0195,-0.0155,-0.0127,-0.0047,-0.0049,-0.0038,-0.0042,0.0047,0.0047,0.0047,-0.0017,-0.0024,-0.0029,0,0,0,0,0,0,-0.0316,-0.03,-0.0286,-0.0293,-0.0275,-0.024,-0.0237,-0.0217,-0.0185,-0.0179,-0.0127,-0.0114,-0.0089,-0.0055,-0.0059,-0.0019,0.0004,0.0006,-0.0048,-0.0053,-0.0058,-0.0071,-0.0021,0,0,0,0,0,-0.0325,-0.0329,-0.0306,-0.031,-0.0305,-0.0271,-0.0261,-0.0242,-0.0211,-0.0197,-0.0158,-0.0116,-0.0082,-0.006,-0.0026,-0.0003,0.0038,0.0002,-0.0002,-0.0007,-0.0009,0.0042,0.0041,0.0045,0.0045,0.0045,0,0,-0.0335,-0.0327,-0.0328,-0.0316,-0.0298,-0.03,-0.0264,-0.0255,-0.0251,-0.019,-0.0172,-0.0132,-0.008,-0.0056,-0.0041,-0.0027,0.0015,-0.0007,-0.0011,-0.0011,0.0041,0.0041,0.004,0.0045,0.0045,0.0045,0,0,-0.0365,-0.0351,-0.0367,-0.0359,-0.0342,-0.0321,-0.0323,-0.0293,-0.0273,-0.0252,-0.0208,-0.0172,-0.0121,-0.0084,-0.0059,-0.0067,-0.0014,-0.0057,-0.0087,-0.0038,-0.0038,-0.0038,0.0015,0.0021,-0.0056,-0.0057,-0.0057,0,-0.0378,-0.0395,-0.0369,-0.0384,-0.0381,-0.0337,-0.0353,-0.0329,-0.029,-0.0274,-0.0256,-0.0176,-0.0134,-0.0097,-0.0101,-0.0078,-0.0039,-0.0073,-0.0045,-0.0044,-0.0042,0.0012,0.0019,-0.006,-0.0059,-0.0059,-0.0059,0,-0.0421,-0.0433,-0.0442,-0.0446,-0.0438,-0.0444,-0.0413,-0.0397,-0.0367,-0.0336,-0.0294,-0.0233,-0.0183,-0.0167,-0.0136,-0.0105,-0.0078,-0.006,-0.0035,-0.0047,0.0012,0.002,-0.0065,-0.0063,-0.0062,-0.0062,0,0,-0.0454,-0.0471,-0.0474,-0.0488,-0.0473,-0.0473,-0.0465,-0.0442,-0.043,-0.0383,-0.0359,-0.03,-0.0257,-0.0226,-0.0177,-0.0135,-0.0091,-0.0099,-0.0095,-0.0053,0.0022,0.0065,0.0079,-0.0069,-0.0068,-0.0067,0.0058,0,-0.0496,-0.0544,-0.0534,-0.0567,-0.0588,-0.0549,-0.0545,-0.0514,-0.0471,-0.0434,-0.0362,-0.0322,-0.0281,-0.0254,-0.0207,-0.0117,-0.0071,-0.0126,0.0034,0.0038,0.0072,0.0089,0.0105,0.0221,0.0067,0.0069,0.007,0,-0.0543,-0.0569,-0.0617,-0.0632,-0.0635,-0.0642,-0.0619,-0.0608,-0.0541,-0.0506,-0.0446,-0.0382,-0.0308,-0.0276,-0.013,-0.0166,-0.0082,-0.0014,-0.0007,0.0063,0.0097,0.0209,0.0243,0.0374,0.0084,0.0083,0.0082,0,-0.0587,-0.0624,-0.0665,-0.0672,-0.068,-0.0685,-0.0678,-0.063,-0.0615,-0.0545,-0.0517,-0.0418,-0.0356,-0.0249,-0.01,-0.0114,0.0067,0.0068,0.0187,0.0191,0.0252,0.026,0.0427,0.0164,0.0164,0.0164,0.0163,0,-0.0639,-0.067,-0.069,-0.0715,-0.0751,-0.0733,-0.0745,-0.0718,-0.067,-0.0647,-0.0556,-0.0502,-0.0347,-0.0221,-0.0102,0.0082,0.0073,0.019,0.0229,0.023,0.0234,0.0389,0.044,0.0168,0.0167,0.0166,0.0165,0,-0.0683,-0.0698,-0.0748,-0.077,-0.0777,-0.0801,-0.0801,-0.08,-0.0748,-0.0711,-0.0691,-0.0551,-0.038,-0.0214,-0.0013,0.009,0.0339,0.0315,0.0309,0.0344,0.0555,0.0601,0.0813,0.0885,0.0457,0.0459,0.0461,0,-0.0712,-0.0743,-0.0793,-0.0823,-0.0837,-0.0864,-0.0878,-0.0845,-0.0836,-0.0733,-0.0714,-0.0544,-0.0408,-0.009,0.012,0.0348,0.0443,0.0492,0.0461,0.0583,0.0663,0.0694,0.074,0.0521,0.0522,0.0524,0.0525,0,-0.0759,-0.0775,-0.0815,-0.0883,-0.0916,-0.0949,-0.0961,-0.0967,-0.091,-0.0855,-0.0737,-0.0617,-0.0303,-0.0024,0.0273,0.0407,0.0589,0.053,0.0664,0.0736,0.0775,0.0857,0.0424,0.0539,0.0538,0.0537,0.0536,0.0535,-0.0783,-0.0825,-0.0878,-0.0938,-0.0982,-0.1021,-0.1038,-0.1026,-0.0996,-0.0893,-0.0765,-0.0561,-0.0165,0.0262,0.0428,0.0759,0.0728,0.0845,0.0895,0.0919,0.0978,0.0577,0.0726,0.0726,0.0725,0.0725,0.0725,0,-0.0811,-0.086,-0.0927,-0.0997,-0.1051,-0.1058,-0.108,-0.1067,-0.1024,-0.0898,-0.0756,-0.0331,0.0074,0.0442,0.091,0.1102,0.1136,0.1202,0.1249,0.1281,0.0941,0.0932,0.1124,0.1124,0.1124,0.1124,0.1124,0.1123,-0.0827,-0.0896,-0.0936,-0.1034,-0.1081,-0.1122,-0.113,-0.1088,-0.1003,-0.0779,-0.0548,-0.0363,0.016,0.0951,0.1402,0.145,0.1605,0.1605,0.1691,0.145,0.142,0.1391,0.1397,0.1682,0.1683,0.2005,0.2009,0.2011]}],[{"header":{"parameterUnit":"m.s-1","parameterCategory":2,"la1":30.2991,"la2":30.254,"lo1":-89.0895,"lo2":-89.0444,"dy":0.0017,"dx":0.0017,"nx":28,"ny":28,"refTime":"2025-01-10T03:00:00:Z","depth":"2","parameterNumber":2,"parameterNumberName":"U-component_of_CURRENTS"},"data":[0,0,0,0,0,0,0,0,0,0,0,0,0,0,0,0,0,0,0,0,0,0,0,0,0,0,0,0,0,0,0,0,0,0,0,0,0,0,0,0,0,0,0,0,0,0,0,0,0,0,0,0,0,0,0,0,0,0,-0.1975,-0.1976,0,-0.2008,-0.2008,-0.2008,-0.1989,-0.1989,-0.1988,-0.1987,-0.1965,-0.1965,-0.1965,0,0,0,0,0,0,0,0,0,0,0,0,0,-0.19,-0.1901,-0.1975,-0.1976,-0.1977,-0.2008,-0.2008,-0.2008,-0.199,-0.1989,-0.1988,-0.1987,-0.1965,-0.1965,-0.1965,0,0,0,0,0,0,0,0,0,0,0,0,0,-0.193,-0.1902,-0.1975,-0.1973,-0.1973,-0.2008,-0.2008,-0.2008,-0.199,-0.1989,-0.1988,-0.1987,-0.1965,-0.1965,-0.1965,-0.1987,0,0,-0.1966,-0.1966,0,0,0,0,0,0,0,0,-0.1929,-0.1933,-0.1972,-0.1973,-0.1973,-0.1996,-0.1974,-0.1999,-0.199,-0.1981,-0.1987,-0.1986,-0.1973,-0.1972,-0.1978,-0.1986,-0.1985,-0.1966,-0.1966,-0.1966,-0.1966,0,0,0,0,0,0,0,-0.1927,-0.1931,-0.1986,-0.1973,-0.1974,-0.1971,-0.1974,-0.1978,-0.1979,-0.1982,-0.1981,-0.1989,-0.1972,-0.1978,-0.1977,-0.1985,-0.1966,-0.1966,-0.1966,-0.1966,-0.2009,-0.201,0,0,0,0,0,0,-0.1929,-0.193,-0.1985,-0.1987,-0.1951,-0.1974,-0.1977,-0.1988,-0.198,-0.198,-0.199,-0.1988,-0.1978,-0.1977,-0.1976,-0.2002,-0.1966,-0.1966,-0.1966,-0.2008,-0.201,-0.2011,0,0,0,0,0,0,-0.1927,-0.1934,-0.1983,-0.196,-0.1967,-0.1976,-0.1988,-0.1989,-0.1993,-0.1988,-0.1985,-0.1994,-0.1977,-0.1976,-0.1985,-0.2001,-0.1966,-0.1966,-0.2007,-0.2009,-0.201,-0.2053,0,0,0,0,0,0,-0.1925,-0.1933,-0.1939,-0.1961,-0.1968,-0.2006,-0.199,-0.199,-0.2001,-0.1999,-0.199,-0.1987,-0.1976,-0.1986,-0.1986,-0.2,-0.1966,-0.2006,-0.2008,-0.201,-0.205,-0.2055,-0.206,0,0,0,0,0,-0.1922,-0.1936,-0.1939,-0.1945,-0.1977,-0.2007,-0.2011,-0.2012,-0.2002,-0.201,-0.2006,-0.1987,-0.1998,-0.1987,-0.1986,-0.2001,-0.2005,-0.2007,-0.201,-0.2047,-0.2054,-0.206,0,0,0,0,0,0,-0.1904,-0.1936,-0.194,-0.1961,-0.1984,-0.2005,-0.2012,-0.2016,-0.2021,-0.2016,-0.2003,-0.2001,-0.2015,-0.2006,-0.1994,-0.2021,-0.1998,-0.2001,-0.2027,-0.2034,-0.2039,-0.2034,-0.1966,0,0,0,0,0,-0.1906,-0.1921,-0.1953,-0.1968,-0.1981,-0.1998,-0.2009,-0.2015,-0.2025,-0.2026,-0.2023,-0.2021,-0.2028,-0.2028,-0.2031,-0.2047,-0.2031,-0.2057,-0.2062,-0.2067,-0.2063,-0.2059,-0.2064,-0.2019,-0.2019,-0.2019,0,0,-0.1901,-0.1922,-0.1929,-0.1965,-0.198,-0.2007,-0.2001,-0.2023,-0.2042,-0.2023,-0.204,-0.204,-0.2037,-0.2055,-0.206,-0.2047,-0.2072,-0.207,-0.2073,-0.2068,-0.2062,-0.2066,-0.207,-0.2021,-0.202,-0.202,0,0,-0.1905,-0.1922,-0.1938,-0.1963,-0.1994,-0.2011,-0.202,-0.2048,-0.2054,-0.2079,-0.207,-0.2081,-0.209,-0.2092,-0.2094,-0.2132,-0.2102,-0.2133,-0.2153,-0.215,-0.2153,-0.2156,-0.2143,-0.2144,-0.2133,-0.2134,-0.2134,0,-0.1898,-0.1925,-0.1947,-0.1974,-0.1993,-0.2015,-0.2039,-0.2059,-0.2085,-0.2093,-0.2087,-0.2109,-0.2108,-0.2128,-0.2142,-0.2143,-0.213,-0.2128,-0.2155,-0.2158,-0.216,-0.2146,-0.2147,-0.2136,-0.2136,-0.2135,-0.2135,0,-0.1917,-0.1941,-0.1954,-0.1994,-0.2019,-0.2044,-0.208,-0.2101,-0.2113,-0.2128,-0.2151,-0.2156,-0.2164,-0.2173,-0.217,-0.2188,-0.2171,-0.2163,-0.2136,-0.2166,-0.2151,-0.2151,-0.2139,-0.2138,-0.2138,-0.2137,0,0,-0.1891,-0.1954,-0.1957,-0.1977,-0.2031,-0.2052,-0.2091,-0.2128,-0.2146,-0.2171,-0.2188,-0.2213,-0.221,-0.2212,-0.2211,-0.2213,-0.2223,-0.2196,-0.2194,-0.2178,-0.2207,-0.2133,-0.2125,-0.2217,-0.2217,-0.2217,-0.2191,0,-0.1894,-0.1939,-0.1974,-0.2014,-0.2039,-0.2078,-0.2111,-0.2147,-0.2173,-0.2198,-0.2211,-0.2227,-0.2227,-0.2229,-0.2235,-0.2229,-0.2224,-0.223,-0.2185,-0.2183,-0.2109,-0.2123,-0.1972,-0.1931,-0.2191,-0.2191,-0.2191,0,-0.1896,-0.1927,-0.1966,-0.2021,-0.2035,-0.2063,-0.211,-0.2145,-0.2191,-0.2209,-0.2231,-0.2241,-0.226,-0.2249,-0.2248,-0.225,-0.223,-0.222,-0.2219,-0.2131,-0.2108,-0.1943,-0.192,-0.219,-0.219,-0.219,-0.219,0,-0.1854,-0.1917,-0.1943,-0.1964,-0.2034,-0.2053,-0.2087,-0.214,-0.2166,-0.2211,-0.2228,-0.2252,-0.2258,-0.2251,-0.2239,-0.2243,-0.2224,-0.2224,-0.2136,-0.213,-0.1983,-0.1963,-0.2209,-0.2209,-0.2209,-0.2209,-0.2209,0,-0.184,-0.1858,-0.1924,-0.1938,-0.1965,-0.2024,-0.2054,-0.2096,-0.2149,-0.2173,-0.2223,-0.2235,-0.2258,-0.2255,-0.224,-0.2183,-0.2222,-0.2134,-0.2117,-0.1994,-0.1977,-0.2186,-0.2184,-0.2208,-0.2208,-0.2209,-0.2209,0,-0.1784,-0.1833,-0.1862,-0.1927,-0.1946,-0.1961,-0.2028,-0.2047,-0.2112,-0.2145,-0.2158,-0.2219,-0.2212,-0.2218,-0.2203,-0.2169,-0.2133,-0.2098,-0.1948,-0.1913,-0.2042,-0.2043,-0.2,-0.1998,-0.1995,-0.1993,-0.1991,0,-0.1759,-0.1769,-0.1832,-0.1841,-0.1867,-0.1904,-0.1925,-0.2008,-0.2034,-0.2123,-0.2127,-0.2153,-0.2137,-0.2097,-0.2044,-0.1988,-0.2057,-0.1818,-0.1796,-0.2032,-0.202,-0.2025,-0.2028,-0.1622,-0.1617,-0.1613,-0.161,0,-0.1698,-0.1719,-0.174,-0.1763,-0.1784,-0.1815,-0.1856,-0.1874,-0.1968,-0.1995,-0.2024,-0.2022,-0.1997,-0.1874,-0.1812,-0.1763,-0.1819,-0.1738,-0.2015,-0.17,-0.1673,-0.1663,-0.1679,-0.1577,-0.158,-0.1583,-0.1585,-0.1586,-0.1635,-0.1631,-0.1656,-0.1666,-0.1692,-0.1703,-0.1685,-0.1738,-0.1757,-0.1769,-0.1855,-0.1799,-0.1792,-0.1613,-0.1534,-0.1477,-0.16,-0.1533,-0.1545,-0.1561,-0.1524,-0.1494,-0.1357,-0.1359,-0.1361,-0.1363,-0.1364,0,-0.1546,-0.1549,-0.1555,-0.1563,-0.1542,-0.1597,-0.1615,-0.1573,-0.1542,-0.158,-0.1573,-0.142,-0.1337,-0.1338,-0.1198,-0.1169,-0.1165,-0.1121,-0.1121,-0.1154,-0.1184,-0.1129,-0.0857,-0.0855,-0.0854,-0.0852,0,0,-0.1499,-0.1468,-0.147,-0.1405,-0.1405,-0.134,-0.1322,-0.1278,-0.1272,-0.1201,-0.1173,-0.1262,-0.1298,-0.108,-0.1026,-0.0922,-0.1027,-0.0873,-0.128,-0.1313,-0.1341,-0.1419,-0.1371,0,0,0,0,0]},{"header":{"parameterUnit":"m.s-1","parameterCategory":2,"la1":30.2991,"la2":30.254,"lo1":-89.0895,"lo2":-89.0444,"dy":0.0017,"dx":0.0017,"nx":28,"ny":28,"refTime":"2025-01-10T03:00:00:Z","depth":"2","parameterNumber":3,"parameterNumberName":"V-component_of_CURRENTS"},"data":[0,0,0,0,0,0,0,0,0,0,0,0,0,0,0,0,0,0,0,0,0,0,0,0,0,0,0,0,0,0,0,0,0,0,0,0,0,0,0,0,0,0,0,0,0,0,0,0,0,0,0,0,0,0,0,0,0,0,-0.0223,-0.0223,0,-0.0167,-0.0167,-0.0166,-0.012,-0.012,-0.012,-0.012,-0.0024,-0.0022,-0.002,0,0,0,0,0,0,0,0,0,0,0,0,0,-0.0238,-0.0238,-0.0223,-0.0223,-0.0222,-0.0167,-0.0166,-0.0166,-0.012,-0.012,-0.012,-0.0119,-0.0025,-0.0022,-0.0019,0,0,0,0,0,0,0,0,0,0,0,0,0,-0.021,-0.0238,-0.0223,-0.0195,-0.0192,-0.0168,-0.0166,-0.0165,-0.012,-0.012,-0.012,-0.0119,-0.0026,-0.0022,-0.0019,-0.0006,0,0,-0.0009,-0.0007,0,0,0,0,0,0,0,0,-0.0212,-0.0209,-0.0199,-0.0197,-0.0193,-0.0152,-0.0137,-0.0111,-0.0121,-0.0145,-0.012,-0.0119,-0.0065,-0.0058,-0.0046,-0.0002,0.0002,-0.0008,-0.0006,-0.0005,-0.0004,0,0,0,0,0,0,0,-0.0214,-0.0211,-0.0199,-0.0199,-0.0195,-0.0166,-0.0162,-0.0131,-0.0106,-0.0143,-0.014,-0.0137,-0.0062,-0.005,-0.0044,0.0004,-0.0008,-0.0005,-0.0003,-0.0002,0.0076,0.0076,0,0,0,0,0,0,-0.0228,-0.0213,-0.0201,-0.0198,-0.0204,-0.0167,-0.0162,-0.0164,-0.0107,-0.0099,-0.0138,-0.0135,-0.0056,-0.0048,-0.004,-0.002,-0.0005,-0.0002,0.0,0.0076,0.0076,0.0076,0,0,0,0,0,0,-0.0229,-0.0228,-0.0203,-0.0205,-0.02,-0.0168,-0.017,-0.0163,-0.0151,-0.0104,-0.0094,-0.0133,-0.0055,-0.0045,-0.0013,-0.0016,0.0,0.0003,0.0076,0.0076,0.0076,0.0019,0,0,0,0,0,0,-0.0229,-0.0228,-0.0234,-0.0207,-0.0201,-0.0196,-0.017,-0.0163,-0.0151,-0.0147,-0.0096,-0.0087,-0.0054,-0.0018,-0.001,-0.0011,0.0006,0.0076,0.0076,0.0076,0.0021,0.0017,0.0014,0,0,0,0,0,-0.023,-0.0244,-0.0234,-0.0233,-0.021,-0.0197,-0.0191,-0.0165,-0.0151,-0.0151,-0.0113,-0.0088,-0.0012,-0.0016,-0.0005,-0.0006,0.0076,0.0076,0.0076,0.0022,0.0018,0.0014,0,0,0,0,0,0,-0.0254,-0.024,-0.0229,-0.0238,-0.0221,-0.019,-0.0188,-0.017,-0.014,-0.0135,-0.0088,-0.0076,-0.005,-0.0019,-0.0025,0.0017,0.0036,0.0038,-0.0008,-0.0012,-0.0016,-0.0028,0.0009,0,0,0,0,0,-0.0263,-0.0269,-0.0248,-0.0254,-0.0249,-0.0219,-0.021,-0.0193,-0.0165,-0.0151,-0.0116,-0.0076,-0.0042,-0.0021,0.0011,0.0035,0.0068,0.0042,0.0038,0.0035,0.0033,0.008,0.008,0.0076,0.0076,0.0076,0,0,-0.0274,-0.0267,-0.0269,-0.0259,-0.0243,-0.0244,-0.0212,-0.0205,-0.02,-0.0145,-0.0126,-0.0089,-0.0039,-0.0013,0.0001,0.0012,0.0053,0.0035,0.0032,0.0031,0.008,0.008,0.0081,0.0076,0.0076,0.0076,0,0,-0.0302,-0.0293,-0.0308,-0.0299,-0.0284,-0.0265,-0.0266,-0.0239,-0.022,-0.0198,-0.0157,-0.0121,-0.0073,-0.0035,-0.001,-0.0012,0.003,-0.0003,-0.0027,0.0019,0.0019,0.002,0.0058,0.0063,-0.0002,-0.0002,-0.0002,0,-0.0316,-0.0332,-0.0309,-0.0322,-0.0319,-0.0279,-0.0293,-0.0268,-0.0232,-0.0216,-0.0201,-0.0122,-0.0082,-0.0041,-0.0041,-0.002,0.001,-0.0017,0.0013,0.0015,0.0017,0.0056,0.0062,-0.0005,-0.0004,-0.0004,-0.0004,0,-0.0355,-0.0366,-0.0375,-0.0376,-0.0369,-0.0374,-0.0343,-0.0327,-0.0299,-0.0269,-0.0226,-0.0168,-0.0119,-0.0101,-0.0071,-0.0037,-0.002,-0.0001,0.002,0.0014,0.0055,0.0063,-0.0009,-0.0008,-0.0007,-0.0006,0,0,-0.039,-0.0402,-0.0404,-0.0416,-0.0399,-0.04,-0.0388,-0.0364,-0.0353,-0.0306,-0.0283,-0.0219,-0.0181,-0.0149,-0.0102,-0.0061,-0.0022,-0.0031,-0.0027,0.0,0.0074,0.0097,0.0108,0.0001,0.0002,0.0003,0.0095,0,-0.0427,-0.0468,-0.0457,-0.0486,-0.0503,-0.0466,-0.0459,-0.0429,-0.0389,-0.0355,-0.0282,-0.0243,-0.02,-0.0176,-0.0127,-0.0047,-0.0005,-0.0049,0.0082,0.0086,0.0103,0.0117,0.0094,0.0175,0.0103,0.0104,0.0105,0,-0.0469,-0.0491,-0.0533,-0.0545,-0.0547,-0.0553,-0.0531,-0.0519,-0.0456,-0.0423,-0.0364,-0.0304,-0.023,-0.0197,-0.0063,-0.0093,-0.0019,0.0043,0.0049,0.0096,0.0124,0.0172,0.0191,0.0118,0.0116,0.0116,0.0115,0,-0.0511,-0.0542,-0.0578,-0.0584,-0.0588,-0.0592,-0.0586,-0.054,-0.0528,-0.0462,-0.0441,-0.0342,-0.0289,-0.0184,-0.005,-0.0056,0.0097,0.0108,0.02,0.0202,0.0222,0.0224,0.0197,0.0197,0.0196,0.0196,0.0196,0,-0.0558,-0.0586,-0.0603,-0.0625,-0.0659,-0.064,-0.0654,-0.0629,-0.0587,-0.0572,-0.0479,-0.0437,-0.0284,-0.0174,-0.006,0.0098,0.0095,0.02,0.0231,0.0201,0.0201,0.0182,0.0179,0.02,0.0199,0.0198,0.0198,0,-0.0601,-0.0612,-0.0657,-0.0677,-0.0684,-0.0707,-0.0711,-0.0715,-0.0668,-0.0643,-0.0625,-0.05,-0.0353,-0.0194,-0.0012,0.0086,0.0231,0.0285,0.0237,0.0261,0.0305,0.0298,0.0394,0.0395,0.0397,0.0398,0.0399,0,-0.0627,-0.0655,-0.0701,-0.0731,-0.0744,-0.0772,-0.0789,-0.076,-0.0758,-0.0678,-0.0666,-0.0523,-0.0411,-0.0131,0.0067,0.0276,0.0278,0.037,0.0356,0.0307,0.0327,0.0318,0.0309,0.0359,0.036,0.036,0.0361,0,-0.0673,-0.0688,-0.0724,-0.0791,-0.0826,-0.0861,-0.0878,-0.0888,-0.0844,-0.0804,-0.0718,-0.0621,-0.035,-0.0116,0.0154,0.0274,0.0334,0.0386,0.0364,0.0308,0.0281,0.0299,0.029,0.0365,0.0365,0.0364,0.0364,0.0364,-0.0699,-0.0738,-0.0788,-0.0847,-0.0893,-0.0937,-0.0957,-0.0954,-0.094,-0.0863,-0.0765,-0.0597,-0.037,0.0015,0.0217,0.0406,0.0394,0.0441,0.0437,0.0433,0.0408,0.0384,0.0483,0.0483,0.0483,0.0484,0.0484,0,-0.073,-0.0775,-0.0839,-0.0908,-0.0965,-0.0975,-0.1005,-0.0996,-0.0971,-0.0873,-0.0765,-0.0508,-0.0241,0.0004,0.0302,0.0473,0.0461,0.0504,0.0451,0.0446,0.0441,0.0414,0.0492,0.0493,0.0494,0.0494,0,0,-0.0748,-0.0814,-0.085,-0.0949,-0.0997,-0.1045,-0.1058,-0.1023,-0.095,-0.0842,-0.0713,-0.054,-0.0243,-0.0032,0.0191,0.0354,0.0356,0.0371,0.0345,0.0251,0.0245,0.0386,0.0336,0,0,0,0,0]}],[{"header":{"parameterUnit":"m.s-1","parameterCategory":2,"la1":30.2991,"la2":30.254,"lo1":-89.0895,"lo2":-89.0444,"dy":0.0017,"dx":0.0017,"nx":28,"ny":28,"refTime":"2025-01-10T03:00:00:Z","depth":"4","parameterNumber":2,"parameterNumberName":"U-component_of_CURRENTS"},"data":[0,0,0,0,0,0,0,0,0,0,0,0,0,0,0,0,0,0,0,0,0,0,0,0,0,0,0,0,0,0,0,0,0,0,0,0,0,0,0,0,0,0,0,0,0,0,0,0,0,0,0,0,0,0,0,0,0,0,-0.1376,-0.1377,0,-0.1426,-0.1427,-0.1427,-0.1455,-0.1455,-0.1455,-0.1455,-0.1511,-0.1512,-0.1513,0,0,0,0,0,0,0,0,0,0,0,0,0,-0.131,-0.1311,-0.1376,-0.1377,-0.1378,-0.1426,-0.1427,-0.1427,-0.1455,-0.1455,-0.1455,-0.1455,-0.151,-0.1512,-0.1513,0,0,0,0,0,0,0,0,0,0,0,0,0,-0.1346,-0.1312,-0.1376,-0.1398,-0.1401,-0.1426,-0.1427,-0.1427,-0.1455,-0.1455,-0.1455,-0.1455,-0.151,-0.1511,-0.1513,-0.1519,0,0,-0.1519,-0.152,0,0,0,0,0,0,0,0,-0.1344,-0.1348,-0.1394,-0.1397,-0.14,-0.1436,-0.1424,-0.1459,-0.1454,-0.1433,-0.1455,-0.1456,-0.1487,-0.149,-0.1497,-0.1522,-0.1524,-0.1519,-0.1521,-0.1521,-0.1522,0,0,0,0,0,0,0,-0.1342,-0.1346,-0.1394,-0.1395,-0.1398,-0.1408,-0.1413,-0.143,-0.1456,-0.1435,-0.1437,-0.1445,-0.1488,-0.1495,-0.1499,-0.1525,-0.1519,-0.1521,-0.1522,-0.1523,-0.1618,-0.1619,0,0,0,0,0,0,-0.1338,-0.1344,-0.1393,-0.1396,-0.1374,-0.1409,-0.1415,-0.1423,-0.1456,-0.1462,-0.1444,-0.1446,-0.1492,-0.1496,-0.1501,-0.1567,-0.1521,-0.1523,-0.1524,-0.1617,-0.1618,-0.162,0,0,0,0,0,0,-0.1336,-0.1342,-0.1391,-0.1372,-0.1379,-0.141,-0.1419,-0.1423,-0.1453,-0.1464,-0.1469,-0.1472,-0.1492,-0.1498,-0.1539,-0.1567,-0.1524,-0.1526,-0.1615,-0.1617,-0.1619,-0.1663,0,0,0,0,0,0,-0.1334,-0.1341,-0.1357,-0.1372,-0.138,-0.1421,-0.1419,-0.1424,-0.1457,-0.146,-0.1489,-0.1493,-0.1493,-0.1536,-0.1541,-0.1569,-0.1527,-0.1613,-0.1616,-0.1618,-0.1659,-0.1666,-0.1671,0,0,0,0,0,-0.1331,-0.1347,-0.1357,-0.1364,-0.1397,-0.1423,-0.1428,-0.1449,-0.1458,-0.1476,-0.1498,-0.1493,-0.1556,-0.1539,-0.1544,-0.1573,-0.1612,-0.1615,-0.1618,-0.1657,-0.1665,-0.1671,0,0,0,0,0,0,-0.1328,-0.1352,-0.1363,-0.1387,-0.1411,-0.1428,-0.145,-0.1463,-0.1495,-0.1505,-0.1511,-0.1518,-0.1563,-0.1564,-0.1545,-0.1609,-0.1583,-0.1587,-0.1611,-0.1618,-0.1624,-0.1619,-0.1529,0,0,0,0,0,-0.1335,-0.1354,-0.1377,-0.1399,-0.1413,-0.1437,-0.1454,-0.147,-0.1494,-0.1509,-0.1531,-0.1554,-0.1576,-0.1594,-0.1612,-0.1649,-0.1635,-0.1671,-0.1677,-0.1682,-0.1682,-0.1689,-0.1695,-0.163,-0.163,-0.163,0,0,-0.1341,-0.1356,-0.1369,-0.1401,-0.1421,-0.1449,-0.1448,-0.1483,-0.1512,-0.151,-0.1564,-0.1578,-0.1591,-0.1631,-0.1651,-0.1638,-0.1694,-0.1686,-0.169,-0.1687,-0.1693,-0.1699,-0.1704,-0.1632,-0.1632,-0.1631,0,0,-0.1353,-0.1377,-0.1396,-0.142,-0.1457,-0.1473,-0.1488,-0.1523,-0.1547,-0.1594,-0.1599,-0.1632,-0.1672,-0.1684,-0.1693,-0.1744,-0.1724,-0.1756,-0.1784,-0.1791,-0.1796,-0.18,-0.1786,-0.1788,-0.1759,-0.176,-0.176,0,-0.1362,-0.1386,-0.1407,-0.1433,-0.1457,-0.1487,-0.1516,-0.1545,-0.1591,-0.1613,-0.162,-0.1681,-0.1695,-0.1732,-0.1752,-0.1758,-0.175,-0.1754,-0.1797,-0.1801,-0.1805,-0.1789,-0.1791,-0.1762,-0.1762,-0.1761,-0.1761,0,-0.1381,-0.1413,-0.1429,-0.147,-0.15,-0.1532,-0.1571,-0.161,-0.1644,-0.1668,-0.1723,-0.1743,-0.1773,-0.1788,-0.1789,-0.1826,-0.1808,-0.1802,-0.1775,-0.1814,-0.1795,-0.1796,-0.1766,-0.1765,-0.1764,-0.1763,0,0,-0.1364,-0.143,-0.1438,-0.1465,-0.1524,-0.1546,-0.1603,-0.1652,-0.1688,-0.1737,-0.1777,-0.1822,-0.1832,-0.1843,-0.1849,-0.186,-0.1881,-0.1847,-0.1847,-0.1826,-0.1883,-0.1756,-0.1745,-0.1884,-0.1885,-0.1885,-0.1857,0,-0.1375,-0.1423,-0.1458,-0.1514,-0.1542,-0.1591,-0.1637,-0.1689,-0.1734,-0.1781,-0.1811,-0.1851,-0.1853,-0.1871,-0.1886,-0.1886,-0.1888,-0.1888,-0.1854,-0.1853,-0.1729,-0.1743,-0.1888,-0.1858,-0.1858,-0.1858,-0.1858,0,-0.1375,-0.141,-0.1463,-0.1533,-0.1551,-0.1593,-0.1666,-0.1712,-0.1781,-0.1815,-0.1859,-0.188,-0.1917,-0.1907,-0.1922,-0.1923,-0.1907,-0.1899,-0.1898,-0.1763,-0.1728,-0.1813,-0.186,-0.186,-0.186,-0.186,-0.186,0,-0.1335,-0.1411,-0.1454,-0.1479,-0.1563,-0.1602,-0.165,-0.1724,-0.1761,-0.1836,-0.1863,-0.1909,-0.1928,-0.1933,-0.1923,-0.1929,-0.1918,-0.1921,-0.1786,-0.1776,-0.188,-0.1876,-0.1917,-0.1917,-0.1917,-0.1917,-0.1918,0,-0.1315,-0.1353,-0.1444,-0.1465,-0.1519,-0.1587,-0.1646,-0.1701,-0.1773,-0.1801,-0.1874,-0.1885,-0.1937,-0.1937,-0.1927,-0.1849,-0.1919,-0.1782,-0.1759,-0.1899,-0.1898,-0.1881,-0.1877,-0.1916,-0.1917,-0.1917,-0.1917,0,-0.1258,-0.1322,-0.1374,-0.1469,-0.1501,-0.1539,-0.1633,-0.1664,-0.1748,-0.1785,-0.1807,-0.1873,-0.1866,-0.1888,-0.1885,-0.183,-0.1787,-0.1739,-0.1874,-0.186,-0.164,-0.1639,-0.1587,-0.1582,-0.1578,-0.1575,-0.1572,0,-0.1229,-0.1252,-0.1357,-0.1385,-0.1431,-0.1499,-0.1535,-0.1636,-0.1661,-0.175,-0.1746,-0.1781,-0.1804,-0.1688,-0.1736,-0.1693,-0.1674,-0.1641,-0.1652,-0.1623,-0.1607,-0.1612,-0.1616,-0.1566,-0.1565,-0.1563,-0.1562,0,-0.1166,-0.1216,-0.1256,-0.1312,-0.1361,-0.1404,-0.1465,-0.1469,-0.1565,-0.166,-0.1627,-0.1616,-0.1599,-0.159,-0.1561,-0.1537,-0.1663,-0.1599,-0.1608,-0.1618,-0.1596,-0.1585,-0.1594,-0.1548,-0.1551,-0.1552,-0.1553,0,-0.1116,-0.1126,-0.1182,-0.1217,-0.1275,-0.128,-0.133,-0.1344,-0.1381,-0.1482,-0.1463,-0.1503,-0.1568,-0.1506,-0.1485,-0.1446,-0.1431,-0.1389,-0.1409,-0.1425,-0.1387,-0.1336,-0.1179,0,0,0,0,0,-0.1056,-0.1051,-0.1077,-0.1107,-0.1157,-0.1186,-0.1263,-0.1314,-0.1407,-0.1338,-0.1396,-0.137,-0.1336,-0.1364,-0.129,-0.1421,-0.1444,-0.133,-0.1408,-0.1471,-0.1487,-0.1459,0,0,0,0,0,0,-0.1014,-0.1037,-0.1039,-0.1002,-0.0996,-0.1035,-0.1075,-0.1143,-0.1113,-0.1214,-0.1197,-0.1279,-0.1265,-0.1345,-0.1256,-0.1265,-0.1284,-0.1368,-0.1364,-0.1462,-0.1477,-0.149,-0.1466,0,0,0,0,0]},{"header":{"parameterUnit":"m.s-1","parameterCategory":2,"la1":30.2991,"la2":30.254,"lo1":-89.0895,"lo2":-89.0444,"dy":0.0017,"dx":0.0017,"nx":28,"ny":28,"refTime":"2025-01-10T03:00:00:Z","depth":"4","parameterNumber":3,"parameterNumberName":"V-component_of_CURRENTS"},"data":[0,0,0,0,0,0,0,0,0,0,0,0,0,0,0,0,0,0,0,0,0,0,0,0,0,0,0,0,0,0,0,0,0,0,0,0,0,0,0,0,0,0,0,0,0,0,0,0,0,0,0,0,0,0,0,0,0,0,-0.0146,-0.0145,0,-0.0109,-0.0109,-0.0108,-0.0078,-0.0077,-0.0077,-0.0077,-0.0004,-0.0002,-0.0001,0,0,0,0,0,0,0,0,0,0,0,0,0,-0.0146,-0.0146,-0.0146,-0.0145,-0.0145,-0.0109,-0.0109,-0.0108,-0.0078,-0.0077,-0.0077,-0.0077,-0.0005,-0.0003,-0.0,0,0,0,0,0,0,0,0,0,0,0,0,0,-0.013,-0.0146,-0.0146,-0.0127,-0.0125,-0.011,-0.0109,-0.0108,-0.0078,-0.0077,-0.0077,-0.0077,-0.0005,-0.0003,-0.0,0.0011,0,0,0.0008,0.0009,0,0,0,0,0,0,0,0,-0.0131,-0.013,-0.013,-0.0128,-0.0126,-0.0099,-0.0082,-0.0067,-0.0078,-0.0094,-0.0077,-0.0077,-0.0034,-0.0029,-0.0021,0.0014,0.0017,0.0008,0.001,0.0011,0.0012,0,0,0,0,0,0,0,-0.0132,-0.0131,-0.0129,-0.013,-0.0127,-0.0106,-0.0103,-0.0079,-0.0064,-0.0092,-0.009,-0.0089,-0.0032,-0.0023,-0.0019,0.0019,0.0008,0.0011,0.0012,0.0013,0.008,0.008,0,0,0,0,0,0,-0.0142,-0.0132,-0.0131,-0.0129,-0.013,-0.0106,-0.0103,-0.0107,-0.0065,-0.0059,-0.0089,-0.0088,-0.0028,-0.0022,-0.0016,0.0003,0.0011,0.0014,0.0015,0.008,0.008,0.008,0,0,0,0,0,0,-0.0143,-0.0143,-0.0132,-0.013,-0.0128,-0.0107,-0.011,-0.0106,-0.0099,-0.0063,-0.0056,-0.0088,-0.0028,-0.002,0.0005,0.0006,0.0015,0.0017,0.008,0.008,0.008,0.0039,0,0,0,0,0,0,-0.0143,-0.0143,-0.015,-0.0131,-0.0128,-0.0129,-0.0111,-0.0106,-0.01,-0.0097,-0.0059,-0.0052,-0.0027,0.0001,0.0008,0.001,0.0019,0.008,0.008,0.008,0.004,0.0038,0.0036,0,0,0,0,0,-0.0143,-0.0157,-0.0151,-0.015,-0.0138,-0.013,-0.0126,-0.0109,-0.01,-0.0101,-0.0072,-0.0054,0.0008,0.0003,0.0011,0.0014,0.0079,0.008,0.008,0.0041,0.0038,0.0036,0,0,0,0,0,0,-0.0162,-0.0154,-0.0147,-0.0158,-0.0147,-0.0125,-0.0127,-0.0114,-0.0092,-0.0089,-0.0052,-0.0043,-0.0021,0.0002,-0.0004,0.0035,0.0047,0.0049,0.0015,0.0013,0.0011,-0.0,0.0021,0,0,0,0,0,-0.0169,-0.0176,-0.0163,-0.0171,-0.0169,-0.0148,-0.0143,-0.0131,-0.011,-0.0101,-0.0074,-0.0042,-0.0013,0.0003,0.003,0.005,0.0074,0.0059,0.0056,0.0054,0.0052,0.0093,0.0094,0.0082,0.0082,0.0082,0,0,-0.0179,-0.0176,-0.018,-0.0176,-0.0165,-0.0167,-0.0144,-0.0141,-0.0137,-0.0096,-0.0082,-0.0052,-0.001,0.0013,0.0026,0.0033,0.0068,0.0055,0.0053,0.0051,0.0093,0.0095,0.0096,0.0082,0.0082,0.0082,0,0,-0.0202,-0.02,-0.0212,-0.0207,-0.0198,-0.0184,-0.0186,-0.0167,-0.0154,-0.0137,-0.0104,-0.0072,-0.0035,-0.0,0.0022,0.0025,0.0053,0.0032,0.0015,0.0055,0.0056,0.0058,0.0078,0.0082,0.0034,0.0033,0.0033,0,-0.0215,-0.0229,-0.0214,-0.0224,-0.0224,-0.0196,-0.0207,-0.0188,-0.0162,-0.015,-0.0139,-0.0073,-0.0039,0.0,0.0003,0.002,0.0039,0.002,0.0052,0.0054,0.0056,0.0077,0.0081,0.0032,0.0032,0.0032,0.0032,0,-0.0244,-0.0256,-0.0263,-0.0266,-0.0262,-0.0268,-0.0244,-0.0234,-0.0214,-0.019,-0.0154,-0.0104,-0.0064,-0.0045,-0.002,0.0014,0.0021,0.0041,0.0055,0.0054,0.0077,0.0082,0.0029,0.0029,0.003,0.003,0,0,-0.0272,-0.0283,-0.0286,-0.0297,-0.0286,-0.0288,-0.0279,-0.0261,-0.0256,-0.0216,-0.0201,-0.0139,-0.0109,-0.0082,-0.0041,-0.0002,0.003,0.0021,0.0024,0.0035,0.0103,0.0087,0.0091,0.0054,0.0055,0.0056,0.0108,0,-0.0299,-0.0332,-0.0325,-0.035,-0.0364,-0.0339,-0.0335,-0.0312,-0.0283,-0.026,-0.0196,-0.0166,-0.0123,-0.0105,-0.0058,0.0008,0.0044,0.0013,0.0108,0.011,0.0091,0.0097,0.0059,0.0112,0.0114,0.0114,0.0115,0,-0.0329,-0.0349,-0.0383,-0.0398,-0.0401,-0.041,-0.04,-0.0391,-0.0344,-0.0321,-0.0272,-0.0223,-0.0157,-0.0124,-0.001,-0.0034,0.0028,0.008,0.0084,0.0087,0.0104,0.0118,0.0125,0.0125,0.0124,0.0123,0.0123,0,-0.0359,-0.0388,-0.0419,-0.0425,-0.0434,-0.0443,-0.0443,-0.0412,-0.0407,-0.0358,-0.0348,-0.0261,-0.0221,-0.0127,-0.0016,-0.0013,0.0103,0.0123,0.0166,0.0165,0.0181,0.018,0.0199,0.0199,0.0199,0.0199,0.0199,0,-0.0389,-0.0415,-0.044,-0.0459,-0.0496,-0.0485,-0.0507,-0.0491,-0.0467,-0.0462,-0.0383,-0.0357,-0.0219,-0.0134,-0.0033,0.0079,0.0094,0.0161,0.018,0.0161,0.0157,0.0185,0.0182,0.0201,0.0201,0.02,0.02,0,-0.0414,-0.043,-0.0472,-0.0501,-0.0514,-0.054,-0.0562,-0.0571,-0.0542,-0.0534,-0.0522,-0.0426,-0.0315,-0.0181,-0.0027,0.0048,0.0162,0.0197,0.0151,0.0168,0.0198,0.0193,0.0246,0.0246,0.0246,0.0246,0.0246,0,-0.0429,-0.0454,-0.051,-0.0544,-0.0562,-0.0599,-0.0624,-0.0613,-0.0617,-0.0574,-0.0569,-0.047,-0.0392,-0.019,-0.005,0.0132,0.0162,0.0211,0.0221,0.019,0.0205,0.02,0.0195,0.0246,0.0246,0.0246,0.0246,0,-0.0456,-0.0479,-0.0514,-0.0587,-0.063,-0.0672,-0.0702,-0.071,-0.0689,-0.0669,-0.06,-0.0489,-0.0368,-0.02,-0.0062,0.0072,0.0176,0.0211,0.0212,0.0222,0.0191,0.0204,0.0199,0.0245,0.0245,0.0245,0.0245,0,-0.0473,-0.0508,-0.056,-0.0618,-0.0681,-0.0724,-0.0736,-0.0732,-0.0728,-0.0671,-0.0651,-0.0509,-0.0423,-0.0232,-0.0102,0.0025,0.0061,0.0101,0.0109,0.0111,0.006,-0.0,0.0011,0,0,0,0,0,-0.0486,-0.0526,-0.0587,-0.0652,-0.0715,-0.0746,-0.0778,-0.0777,-0.0759,-0.0717,-0.068,-0.0562,-0.0362,-0.0272,-0.0148,-0.0106,0.0076,0.0042,0.0125,0.0244,0.0245,0.0207,0,0,0,0,0,0,-0.0496,-0.0555,-0.0586,-0.0666,-0.0714,-0.0775,-0.0795,-0.0783,-0.0748,-0.0713,-0.0603,-0.0541,-0.0343,-0.0433,-0.0148,-0.0109,-0.0042,0.014,0.0142,0.0244,0.0244,0.0245,0.0206,0,0,0,0,0]}]]